Location: Bakov nad Jizerou
(50.4784°N, 14.9394°E)
Time: 06:49:50
(UTC+00:00)

SL-8 R/B - Pass Details

Date: 16 June 2021
Orbit: 656 x 667 km, 48.4° (Epoch: 28 July)

Event Time Altitude Azimuth Distance (km) Brightness Sun altitude
Rises 19:50:41 0° 273° (W) 2,994 7.9 -5.0°
Reaches altitude 10° 19:53:02 10° 271° (W) 2,079 6.9 -5.3°
Maximum altitude 19:57:47 65° 190° (S) 728 3.8 -5.8°
Drops below altitude 10° 20:02:31 10° 109° (ESE) 2,069 5.7 -6.3°
Enters shadow 20:04:01 - 107° (ESE) 2,645 6.3 -6.4°
